User: anonymous   Login
Location: Unnamed
(51.5169°N, 0.1311°W)
Time: 17:34:33
(UTC+01:00)
Language:

ISS - Orbit

View from above orbital plane
View from above orbital plane
View from above satellite
View from above satellite

Ground track
Ground track

The orbit data is extracted from the following two-line orbital elements,

1 25544U 98067A   24170.50979623  .00014104  00000-0  25876-3 0  9996
2 25544  51.6407 308.7259 0010775 340.2673 137.9667 15.49493465458752
Epoch (UTC): 18 June 2024 12:14:06
Eccentricity: 0.0010775
inclination: 51.6407°
perigee height: 411 km
apogee height: 425 km
right ascension of ascending node: 308.7259°
argument of perigee: 340.2673°
revolutions per day: 15.49493465
mean anomaly at epoch: 137.9667°
orbit number at epoch: 45875

The dashed part of the orbit path shows where the satellite is in the earth's shadow,  

DLR